Regional Weather Roundup
Issued by NWS Newport/Morehead, NC

Current Version | Previous Version | Graphics & Text | Print | Product List | Glossary On
Versions: 1 2 3 4 5 6 7 8 9 10 11 12 13 14 15 16 17 18 19 20 21 22 23 24 25 26 27 28 29 30 31 32 33 34 35 36 37 38 39 40 41 42 43 44 45 46 47 48 49 50
000 ASUS42 KMHX 202226 RWRMHX WEATHER ROUNDUP FOR EASTERN NORTH CAROLINA NATIONAL WEATHER SERVICE NEWPORT/MOREHEAD CITY NC 600 PM EDT FRI OCT 20 2017 NOTE: "FAIR" INDICATES FEW OR NO CLOUDS BELOW 12,000 FEET WITH NO SIGNIFICANT WEATHER AND/OR OBSTRUCTIONS TO VISIBILITY NCZ015>017-031-032-045>047-102-103-202300- NORTH COAST CITY SKY/WX TMP DP RH WIND PRES REMARKS EDENTON CLEAR 71 58 64 CALM 30.19S ELIZABETH CITY CLEAR 70 56 61 SE6 30.19R KITTY HAWK CLEAR 67 56 69 CALM 30.18R MANTEO CLEAR N/A N/A N/A CALM 30.19S $$ NCZ045>047-081-094-103-104-202300- CENTRAL COAST CITY SKY/WX TMP DP RH WIND PRES REMARKS FRISCO CLEAR 70 58 65 CALM 30.19R $$ NCZ095-097-098-100-101-202300- SOUTHERN COAST CITY SKY/WX TMP DP RH WIND PRES REMARKS BEAUFORT CLEAR 71 56 58 SE5 30.18S CEDAR ISLAND NOT AVBL JACKSONVILLE CLEAR 74 57 55 S6 30.17S PINEY ISLAND N/A N/A N/A N/A CALM 30.18S WILMINGTON CLEAR 73 55 53 S5 30.18R $$ NCZ011>013-027>030-043-044-078>080-089-090>093-098-202300- COASTAL PLAIN CITY SKY/WX TMP DP RH WIND PRES REMARKS AHOSKIE CLEAR 68 55 64 CALM 30.19S CLINTON CLEAR 76 55 49 CALM 30.18S ELIZABETHTOWN NOT AVBL GOLDSBORO CLEAR 75 48 38 N5 30.17S GREENVILLE CLEAR 72 50 46 NE3 30.19S HAVELOCK CLEAR 72 56 57 S5 30.18F KENANSVILLE CLEAR 73 52 46 NW3 30.18R KINSTON CLEAR 73 52 46 NW3 30.18S NEW BERN CLEAR 71 61 70 CALM 30.18S RICHLANDS CLEAR 73 57 57 CALM 30.17S ROCKY MOUNT CLEAR 71 56 58 CALM 30.19S WASHINGTON CLEAR 72 55 56 CALM 30.18S WHITEVILLE CLEAR 71 53 52 CALM 30.17R $$ AMZ130-135-150-152-154-156-158-170-250-252-270-ANZ085-086-088-633-658-670-202300- MARINE OBSERVATIONS STATION/POSITION TIME TEMP WIND PRES WAVE SWELL AIR SEA DIR/SP/G HT/PER HT/PER (UTC) (F) (DEG/KT/KT) (MB) (FT/S) (FT/S) CHESAPEAKE LIGHT NOT AVBL 64 E VA BEACH 2150 68 68 350/ 8/ 8 1022.4 3/ 9 2/ 9 DUCK 2200 69 71 30/ 2/ 3 1021.9 2 E DUCK 2200 70 N/A 2/ 8 OREGON INLET 2200 69 69 10/ 5/ 7 1022.2 13E OREGON INLT 2148 72 N/A 2/ 8 2/ 8 HATTERAS CG 2200 71 71 360/ 1/ 2 1022.1 DIAMOND BUOY 2150 73 81 30/ 4/ 8 1022.0 3/ 8 3/ 8 CAPE LOOKOUT 2200 72 150/ 3/ 3 1021.8 BEAUFORT LAB 2200 72 71 160/ 4/ 5 1022.2 30 SE NEW RVR IN 2208 74 160/ 2/ 4 1021.9 30 SE NEW RVR IN NOT AVBL 27 SE WRIGHTSVLE 2208 73 76 130/ 4/ 8 1022.0 5 SE WRIGHTSVLE 2208 74 75 180/ 8/ 12 1021.8 225 S CAPE HAT 2150 77 80 40/ 12/ 14 1020.5 4/ 9 3/ 9 41 SE CHARLESTON 2210 74 80 40/ 6/ 12 1021.5 $$

USA.gov is the U.S. government's official web portal to all federal, state and local government web resources and services.